Location: Bucaritos
(10.0779°N, 67.0369°W)
Time: 11:16:34
(UTC+00:00)

Daily predictions for brighter satellites

Satellite Brightness Start Highest point End
(mag) Time Altitude Azimuth Time Altitude Azimuth Time Altitude Azimuth
Cosmos 1766 3.8 23:11:21 10° NNE 23:15:00 39° E 23:18:37 10° SSE
Cosmos 1241 Rocket 4.4 23:09:31 10° SSW 23:15:40 72° ESE 23:21:48 10° NNE
HJ-1C 4.3 23:15:09 10° SE 23:17:56 28° ENE 23:20:42 10° NNE
Ariane 3 Deb 4.3 22:56:43 10° W 23:17:56 65° S 23:22:21 10° ESE
Cosmos 405 Rocket 3.7 23:17:20 10° SSE 23:20:43 29° E 23:24:10 10° NNE
Cosmos 494 Rocket 4.2 23:16:38 10° N 23:21:40 51° ENE 23:26:43 10° SSE
Cosmos 1048 Rocket 4.0 23:22:54 10° N 23:28:01 69° ENE 23:33:12 10° SSE
Centaur AC-72 3.1 23:23:36 10° WNW 23:29:20 70° SSW 23:38:31 12° ESE
KM-V1 4.0 23:26:49 10° SW 23:30:01 36° SSE 23:31:57 12° E
OAO 2 Rocket 3.7 23:26:17 10° NW 23:31:27 60° NE 23:36:01 14° ESE
Cosmos 1943 3.3 23:28:09 10° S 23:33:40 53° ESE 23:39:09 10° NNE
Cosmos 1603 3.8 23:33:28 10° S 23:38:54 51° ESE 23:44:21 10° NNE
Cosmos 1943 Rocket 3.7 23:36:47 10° NNE 23:40:26 18° ENE 23:42:38 14° E
CZ-2C R/B 3.5 23:39:29 10° N 23:41:32 13° NNE 23:43:33 10° ENE
Cosmos 1726 2.3 23:39:50 10° N 23:43:24 68° W 23:46:57 10° S
APEX 4.4 23:38:22 10° SSW 23:44:58 77° ESE 23:51:02 10° NNE
ARIANE 44L R/B 4.3 16:01:51 10° W 23:45:59 57° SSW 23:49:27 19° ESE
GPS 2-17 Rocket1 3.4 23:41:51 10° W 23:46:13 62° NNW 23:50:43 10° ENE
CZ-4B R/B 3.6 23:41:29 10° S 23:46:57 66° WSW 23:52:32 10° NNW
Cosmos 1470 3.4 23:43:50 10° NNE 23:47:24 35° E 23:49:33 20° SE
Feng Yun 1-1 Rocket 4.2 23:42:28 10° SSE 23:47:45 61° ENE 23:53:05 10° N
CZ-3A R/B 4.1 13:40:29 10° W 23:50:25 45° S 23:54:19 20° ESE
Iridium 2 4.4 23:47:47 10° NNW 23:51:22 53° W 23:54:57 10° SSW
USA 281 4.4 23:47:22 10° S 23:53:24 40° WSW 23:59:27 10° NW
OBJECT-B 1.2 23:54:00 31° E 23:54:14 31° ENE 23:56:47 10° NNE
ARIANE DEB (SPELDA) 4.2 23:55:21 10° S 23:55:49 11° S 23:55:49 11° S
